Time,TemperatureF,DewpointF,PressureIn,WindDirection,WindDirectionDegrees,WindSpeedMPH,WindSpeedGustMPH,Humidity,HourlyPrecipIn,Conditions,Clouds,dailyrainin,SolarRadiationWatts/m^2,SoftwareType,DateUTC
2013-02-13 00:22:00,30.0,18.0,-100.00,NW,318,5.0,11.0,60,0.00,,,0.00,0.000000,,2013-02-13 07:22:00,
2013-02-13 00:32:00,30.0,18.0,-100.00,NW,318,5.0,11.0,60,0.00,,,0.00,0.000000,,2013-02-13 07:32:00,
2013-02-13 00:42:00,30.0,18.0,-100.00,NW,318,5.0,11.0,60,0.00,,,0.00,0.000000,,2013-02-13 07:42:00,
2013-02-13 00:51:00,30.0,18.0,-100.00,NW,318,5.0,11.0,60,0.00,,,0.00,0.000000,,2013-02-13 07:51:00,
2013-02-13 01:21:00,29.0,18.0,-100.00,North,349,5.0,11.0,62,0.00,,,0.00,0.000000,,2013-02-13 08:21:00,
2013-02-13 01:32:00,29.0,18.0,-100.00,North,349,5.0,11.0,62,0.00,,,0.00,0.000000,,2013-02-13 08:32:00,
2013-02-13 01:43:00,29.0,18.0,-100.00,North,349,5.0,11.0,62,0.00,,,0.00,0.000000,,2013-02-13 08:43:00,
2013-02-13 01:52:00,29.0,18.0,-100.00,North,349,5.0,11.0,62,0.00,,,0.00,0.000000,,2013-02-13 08:52:00,
2013-02-13 02:21:00,30.0,19.0,-100.00,NNW,341,5.0,13.0,63,0.00,,,0.00,0.000000,,2013-02-13 09:21:00,
2013-02-13 02:31:00,30.0,19.0,-100.00,NNW,341,5.0,13.0,63,0.00,,,0.00,0.000000,,2013-02-13 09:31:00,
2013-02-13 02:42:00,30.0,19.0,-100.00,NNW,341,5.0,13.0,63,0.00,,,0.00,0.000000,,2013-02-13 09:42:00,
2013-02-13 02:51:00,30.0,19.0,-100.00,NNW,341,5.0,13.0,63,0.00,,,0.00,0.000000,,2013-02-13 09:51:00,
2013-02-13 03:21:00,28.0,18.0,-100.00,NE,56,2.0,8.0,67,0.00,,,0.00,0.000000,,2013-02-13 10:21:00,
2013-02-13 03:32:00,28.0,18.0,-100.00,NE,56,2.0,8.0,67,0.00,,,0.00,0.000000,,2013-02-13 10:32:00,
2013-02-13 03:42:00,28.0,18.0,-100.00,NE,56,2.0,8.0,67,0.00,,,0.00,0.000000,,2013-02-13 10:42:00,
2013-02-13 03:51:00,28.0,18.0,-100.00,NE,56,2.0,8.0,67,0.00,,,0.00,0.000000,,2013-02-13 10:51:00,
2013-02-13 04:22:00,31.0,18.0,-100.00,NW,317,4.0,11.0,59,0.00,,,0.00,0.000000,,2013-02-13 11:22:00,
2013-02-13 04:32:00,31.0,18.0,-100.00,NW,317,4.0,11.0,59,0.00,,,0.00,0.000000,,2013-02-13 11:32:00,
2013-02-13 04:42:00,31.0,18.0,-100.00,NW,317,4.0,11.0,59,0.00,,,0.00,0.000000,,2013-02-13 11:42:00,
2013-02-13 04:52:00,31.0,18.0,-100.00,NW,317,4.0,11.0,59,0.00,,,0.00,0.000000,,2013-02-13 11:52:00,
2013-02-13 05:22:00,31.0,16.0,-100.00,North,351,3.0,12.0,54,0.00,,,0.00,0.000000,,2013-02-13 12:22:00,
2013-02-13 05:32:00,31.0,16.0,-100.00,North,351,3.0,12.0,54,0.00,,,0.00,0.000000,,2013-02-13 12:32:00,
2013-02-13 05:42:00,31.0,16.0,-100.00,North,351,3.0,12.0,54,0.00,,,0.00,0.000000,,2013-02-13 12:42:00,
2013-02-13 05:52:00,31.0,16.0,-100.00,North,351,3.0,12.0,54,0.00,,,0.00,0.000000,,2013-02-13 12:52:00,
2013-02-13 06:21:00,27.0,17.0,-100.00,NNW,347,3.0,6.0,65,0.00,,,0.00,0.000000,,2013-02-13 13:21:00,
2013-02-13 06:32:00,27.0,17.0,-100.00,NNW,347,3.0,6.0,65,0.00,,,0.00,0.000000,,2013-02-13 13:32:00,
2013-02-13 06:42:00,27.0,17.0,-100.00,NNW,347,3.0,6.0,65,0.00,,,0.00,0.000000,,2013-02-13 13:42:00,
2013-02-13 06:51:00,27.0,17.0,-100.00,NNW,347,3.0,6.0,65,0.00,,,0.00,0.000000,,2013-02-13 13:51:00,
2013-02-13 07:21:00,36.0,19.0,-100.00,NW,323,6.0,14.0,49,0.00,,,0.00,1.000000,,2013-02-13 14:21:00,
2013-02-13 07:32:00,36.0,19.0,-100.00,NW,323,6.0,14.0,49,0.00,,,0.00,1.000000,,2013-02-13 14:32:00,
2013-02-13 07:42:00,36.0,19.0,-100.00,NW,323,6.0,14.0,49,0.00,,,0.00,1.000000,,2013-02-13 14:42:00,
2013-02-13 07:52:00,36.0,19.0,-100.00,NW,323,6.0,14.0,49,0.00,,,0.00,1.000000,,2013-02-13 14:52:00,
2013-02-13 08:21:00,37.0,19.0,-100.00,NNW,333,6.0,15.0,48,0.00,,,0.00,12.000000,,2013-02-13 15:21:00,
2013-02-13 08:32:00,37.0,19.0,-100.00,NNW,333,6.0,15.0,48,0.00,,,0.00,12.000000,,2013-02-13 15:32:00,
2013-02-13 08:42:00,37.0,19.0,-100.00,NNW,333,6.0,15.0,48,0.00,,,0.00,12.000000,,2013-02-13 15:42:00,
2013-02-13 08:51:00,37.0,19.0,-100.00,NNW,333,6.0,15.0,48,0.00,,,0.00,12.000000,,2013-02-13 15:51:00,
2013-02-13 09:11:00,38.0,20.0,-100.00,NNW,331,7.0,21.0,48,0.00,,,0.00,109.000000,,2013-02-13 16:11:00,
2013-02-13 09:21:00,38.0,20.0,-100.00,NNW,331,7.0,21.0,48,0.00,,,0.00,109.000000,,2013-02-13 16:21:00,
2013-02-13 09:32:00,38.0,20.0,-100.00,NNW,331,7.0,21.0,48,0.00,,,0.00,109.000000,,2013-02-13 16:32:00,
2013-02-13 09:42:00,38.0,20.0,-100.00,NNW,331,7.0,21.0,48,0.00,,,0.00,109.000000,,2013-02-13 16:42:00,
2013-02-13 09:51:00,38.0,20.0,-100.00,NNW,331,7.0,21.0,48,0.00,,,0.00,109.000000,,2013-02-13 16:51:00,
2013-02-13 10:21:00,41.0,20.0,-100.00,NNW,335,11.0,33.0,43,0.00,,,0.00,341.000000,,2013-02-13 17:21:00,
2013-02-13 10:32:00,41.0,20.0,-100.00,NNW,335,11.0,33.0,43,0.00,,,0.00,341.000000,,2013-02-13 17:32:00,
2013-02-13 10:42:00,41.0,20.0,-100.00,NNW,335,11.0,33.0,43,0.00,,,0.00,341.000000,,2013-02-13 17:42:00,
2013-02-13 10:52:00,41.0,20.0,-100.00,NNW,335,11.0,33.0,43,0.00,,,0.00,341.000000,,2013-02-13 17:52:00,
2013-02-13 11:23:00,41.0,21.0,-100.00,NNW,342,15.0,31.0,44,0.00,,,0.00,499.000000,,2013-02-13 18:23:00,
2013-02-13 11:32:00,41.0,21.0,-100.00,NNW,342,15.0,31.0,44,0.00,,,0.00,499.000000,,2013-02-13 18:32:00,
2013-02-13 11:42:00,41.0,21.0,-100.00,NNW,342,15.0,31.0,44,0.00,,,0.00,499.000000,,2013-02-13 18:42:00,
2013-02-13 11:52:00,41.0,21.0,-100.00,NNW,342,15.0,31.0,44,0.00,,,0.00,499.000000,,2013-02-13 18:52:00,
2013-02-13 12:21:00,41.0,20.0,-100.00,NNW,328,13.0,29.0,43,0.00,,,0.00,486.000000,,2013-02-13 19:21:00,
2013-02-13 12:32:00,41.0,20.0,-100.00,NNW,328,13.0,29.0,43,0.00,,,0.00,486.000000,,2013-02-13 19:32:00,
2013-02-13 12:42:00,41.0,20.0,-100.00,NNW,328,13.0,29.0,43,0.00,,,0.00,486.000000,,2013-02-13 19:42:00,
2013-02-13 12:51:00,41.0,20.0,-100.00,NNW,328,13.0,29.0,43,0.00,,,0.00,486.000000,,2013-02-13 19:51:00,
2013-02-13 13:21:00,40.0,24.0,-100.00,NNW,338,12.0,33.0,52,0.00,,,0.00,506.000000,,2013-02-13 20:21:00,
2013-02-13 13:31:00,40.0,24.0,-100.00,NNW,338,12.0,33.0,52,0.00,,,0.00,506.000000,,2013-02-13 20:31:00,
2013-02-13 13:42:00,40.0,24.0,-100.00,NNW,338,12.0,33.0,52,0.00,,,0.00,506.000000,,2013-02-13 20:42:00,
2013-02-13 13:52:00,40.0,24.0,-100.00,NNW,338,12.0,33.0,52,0.00,,,0.00,506.000000,,2013-02-13 20:52:00,
2013-02-13 14:21:00,34.0,28.0,-100.00,NNW,340,8.0,22.0,77,0.01,,,0.01,190.000000,,2013-02-13 21:21:00,
2013-02-13 14:31:00,34.0,28.0,-100.00,NNW,340,8.0,22.0,77,0.01,,,0.01,190.000000,,2013-02-13 21:31:00,
2013-02-13 14:42:00,34.0,28.0,-100.00,NNW,340,8.0,22.0,77,0.01,,,0.01,190.000000,,2013-02-13 21:42:00,
2013-02-13 14:52:00,34.0,28.0,-100.00,NNW,340,8.0,22.0,77,0.01,,,0.01,190.000000,,2013-02-13 21:52:00,
2013-02-13 15:21:00,35.0,24.0,-100.00,NNW,336,10.0,21.0,65,0.00,,,0.01,133.000000,,2013-02-13 22:21:00,
2013-02-13 15:31:00,35.0,24.0,-100.00,NNW,336,10.0,21.0,65,0.00,,,0.01,133.000000,,2013-02-13 22:31:00,
2013-02-13 15:42:00,35.0,24.0,-100.00,NNW,336,10.0,21.0,65,0.00,,,0.01,133.000000,,2013-02-13 22:42:00,
2013-02-13 15:51:00,35.0,24.0,-100.00,NNW,336,10.0,21.0,65,0.00,,,0.01,133.000000,,2013-02-13 22:51:00,
2013-02-13 16:21:00,35.0,24.0,-100.00,NW,325,5.0,19.0,63,0.00,,,0.01,112.000000,,2013-02-13 23:21:00,
2013-02-13 16:32:00,35.0,24.0,-100.00,NW,325,5.0,19.0,63,0.00,,,0.01,112.000000,,2013-02-13 23:32:00,
2013-02-13 16:42:00,35.0,24.0,-100.00,NW,325,5.0,19.0,63,0.00,,,0.01,112.000000,,2013-02-13 23:42:00,
2013-02-13 16:52:00,35.0,24.0,-100.00,NW,325,5.0,19.0,63,0.00,,,0.01,112.000000,,2013-02-13 23:52:00,
2013-02-13 17:21:00,32.0,25.0,-100.00,NNW,338,5.0,19.0,74,0.00,,,0.01,42.000000,,2013-02-14 00:21:00,
2013-02-13 17:32:00,32.0,25.0,-100.00,NNW,338,5.0,19.0,74,0.00,,,0.01,42.000000,,2013-02-14 00:32:00,
2013-02-13 17:42:00,32.0,25.0,-100.00,NNW,338,5.0,19.0,74,0.00,,,0.01,42.000000,,2013-02-14 00:42:00,
2013-02-13 17:51:00,32.0,25.0,-100.00,NNW,338,5.0,19.0,74,0.00,,,0.01,42.000000,,2013-02-14 00:51:00,
2013-02-13 18:21:00,32.0,23.0,-100.00,NW,325,5.0,16.0,69,0.00,,,0.01,3.000000,,2013-02-14 01:21:00,
2013-02-13 18:32:00,32.0,23.0,-100.00,NW,325,5.0,16.0,69,0.00,,,0.01,3.000000,,2013-02-14 01:32:00,
2013-02-13 18:41:00,32.0,23.0,-100.00,NW,325,5.0,16.0,69,0.00,,,0.01,3.000000,,2013-02-14 01:41:00,
2013-02-13 18:51:00,32.0,23.0,-100.00,NW,325,5.0,16.0,69,0.00,,,0.01,3.000000,,2013-02-14 01:51:00,
2013-02-13 19:21:00,33.0,23.0,-100.00,NNW,328,6.0,16.0,66,0.00,,,0.01,0.000000,,2013-02-14 02:21:00,
2013-02-13 19:31:00,33.0,23.0,-100.00,NNW,328,6.0,16.0,66,0.00,,,0.01,0.000000,,2013-02-14 02:31:00,
2013-02-13 19:41:00,33.0,23.0,-100.00,NNW,328,6.0,16.0,66,0.00,,,0.01,0.000000,,2013-02-14 02:41:00,
2013-02-13 19:51:00,33.0,23.0,-100.00,NNW,328,6.0,16.0,66,0.00,,,0.01,0.000000,,2013-02-14 02:51:00,
2013-02-13 20:22:00,31.0,25.0,-100.00,NW,318,4.0,15.0,79,0.00,,,0.01,0.000000,,2013-02-14 03:22:00,
2013-02-13 20:31:00,31.0,25.0,-100.00,NW,318,4.0,15.0,79,0.00,,,0.01,0.000000,,2013-02-14 03:31:00,
2013-02-13 20:42:00,31.0,25.0,-100.00,NW,318,4.0,15.0,79,0.00,,,0.01,0.000000,,2013-02-14 03:42:00,
2013-02-13 20:51:00,31.0,25.0,-100.00,NW,318,4.0,15.0,79,0.00,,,0.01,0.000000,,2013-02-14 03:51:00,
2013-02-13 21:12:00,31.0,19.0,-100.00,NNW,327,8.0,21.0,61,0.00,,,0.01,0.000000,,2013-02-14 04:12:00,
2013-02-13 21:21:00,31.0,19.0,-100.00,NNW,327,8.0,21.0,61,0.00,,,0.01,0.000000,,2013-02-14 04:21:00,
2013-02-13 21:31:00,31.0,19.0,-100.00,NNW,327,8.0,21.0,61,0.00,,,0.01,0.000000,,2013-02-14 04:31:00,
2013-02-13 21:41:00,31.0,19.0,-100.00,NNW,327,8.0,21.0,61,0.00,,,0.01,0.000000,,2013-02-14 04:41:00,
2013-02-13 21:51:00,31.0,19.0,-100.00,NNW,327,8.0,21.0,61,0.00,,,0.01,0.000000,,2013-02-14 04:51:00,
2013-02-13 22:22:00,30.0,17.0,-100.00,NNW,333,8.0,20.0,59,0.00,,,-99.99,0.000000,,2013-02-14 05:22:00,
2013-02-13 22:32:00,30.0,17.0,-100.00,NNW,333,8.0,20.0,59,0.00,,,-99.99,0.000000,,2013-02-14 05:32:00,
2013-02-13 22:42:00,30.0,17.0,-100.00,NNW,333,8.0,20.0,59,0.00,,,-99.99,0.000000,,2013-02-14 05:42:00,
2013-02-13 22:52:00,30.0,17.0,-100.00,NNW,333,8.0,20.0,59,0.00,,,-99.99,0.000000,,2013-02-14 05:52:00,
2013-02-13 23:11:00,28.0,17.0,-100.00,NNW,335,6.0,16.0,64,0.00,,,0.01,0.000000,,2013-02-14 06:11:00,
2013-02-13 23:21:00,28.0,17.0,-100.00,NNW,335,6.0,16.0,64,0.00,,,0.01,0.000000,,2013-02-14 06:21:00,
2013-02-13 23:32:00,28.0,17.0,-100.00,NNW,335,6.0,16.0,64,0.00,,,0.01,0.000000,,2013-02-14 06:32:00,
2013-02-13 23:42:00,28.0,17.0,-100.00,NNW,335,6.0,16.0,64,0.00,,,0.01,0.000000,,2013-02-14 06:42:00,
2013-02-13 23:51:00,28.0,17.0,-100.00,NNW,335,6.0,16.0,64,0.00,,,0.01,0.000000,,2013-02-14 06:51:00,